Flag for Moldova Weather past 2 weeks in Chisinau, Moldova

Now
48 °F

Clear.


Feels Like: 46 °F
Forecast: 48 / 67 °F
Wind: 6 mph from Southeast

Location: Chisinau International Airport

Current Time: Apr 28, 2015 at 6:53:50 AM

Latest Report: Apr 28, 2015 at 6:00 AM


Visibility: 5 mi

Pressure: 29.89 "Hg

Humidity: 82%

Dew point: 43 °F

Location of ChisinauLocation

Historic Weather in Chisinau — Graph

°F

Chisinau temperature yesterday

Maximum temperature yesterday: 73 °F (at 2:30 PM)
Minimum temperature yesterday: 48 °F (at 4:30 AM)
Average temperature yesterday: 60 °F

Past Weeks' High & Low Weather Summary

 TemperatureHumidityPressure
High77 °F (Apr 17, 4:00 PM)93% (Apr 22, 2:30 AM)30.24 "Hg (Apr 22, 2:30 AM)
Low32 °F (Apr 23, 3:00 AM)19% (Apr 25, 1:00 PM)29.65 "Hg (Apr 17, 7:30 PM)
Average53 °F54%29.95 "Hg
* Reported Apr 13 5:00 AM — Apr 28 5:30 AM, Chisinau, Weather by CustomWeather, © 2015

Note: Actual official high and low records may vary slightly from our data, if they occured in-between our weather recording intervals... More about our weather records

Advertising

Chisinau weather history for previous 24 hours

 ConditionsComfort  
Time TempWeatherWind HumidityBarometerVisibility
5:30 AM
Tue, Apr 28
50 °FClear.7 mph82%29.89 "Hg10 mi
5:00 AM52 °FClear.8 mph77%29.89 "Hg10 mi
4:30 AM52 °FClear.8 mph77%29.89 "Hg10 mi
4:00 AM52 °FClear.8 mph77%29.89 "Hg10 mi
3:30 AM52 °FClear.7 mph77%29.92 "Hg10 mi
3:00 AM52 °FClear.5 mph72%29.92 "Hg10 mi
2:30 AM52 °FClear.7 mph72%29.92 "Hg10 mi
2:00 AM52 °FClear.5 mph72%29.92 "Hg10 mi
1:30 AM52 °FClear.9 mph72%29.92 "Hg10 mi
1:00 AM54 °FClear.10 mph67%29.92 "Hg10 mi
12:30 AM54 °FClear.15 mph67%29.92 "Hg10 mi
12:00 AM54 °FClear.13 mph67%29.92 "Hg10 mi
11:30 PM
Mon, Apr 27
55 °FPassing clouds.14 mph63%29.92 "HgN/A
11:00 PM55 °FPassing clouds.14 mph63%29.92 "HgN/A
10:30 PM55 °FPassing clouds.16 mph63%29.92 "HgN/A
10:00 PM57 °FPassing clouds.12 mph59%29.92 "HgN/A
9:30 PM59 °FPassing clouds.10 mph55%29.92 "HgN/A
9:00 PM61 °FScattered clouds.12 mph55%29.89 "HgN/A
8:30 PM63 °FScattered clouds.13 mph52%29.89 "HgN/A
8:00 PM64 °FPassing clouds.13 mph49%29.89 "HgN/A
7:30 PM66 °FPassing clouds.14 mph46%29.89 "HgN/A
7:00 PM68 °FSunny.15 mph46%29.89 "Hg10 mi
6:30 PM72 °FSunny.15 mph38%29.89 "Hg10 mi
6:00 PM72 °FSunny.15 mph36%29.89 "Hg10 mi
5:30 PM73 °FSunny.16 mph33%29.89 "Hg10 mi
5:00 PM73 °FSunny.16 mph33%29.89 "Hg10 mi
4:30 PM73 °FSunny.16 mph33%29.89 "Hg10 mi
4:00 PM73 °FPassing clouds.16 mph33%29.89 "HgN/A
3:30 PM73 °FPassing clouds.15 mph33%29.89 "HgN/A
3:00 PM73 °FPassing clouds.15 mph33%29.89 "HgN/A
2:30 PM73 °FPassing clouds.14 mph33%29.92 "HgN/A
2:00 PM72 °FPassing clouds.15 mph33%29.92 "HgN/A
1:30 PM72 °FSunny.14 mph36%29.92 "Hg10 mi
1:00 PM70 °FPassing clouds.15 mph40%29.92 "HgN/A
12:30 PM70 °FPassing clouds.13 mph38%29.92 "HgN/A
12:00 PM70 °FPassing clouds.14 mph40%29.92 "HgN/A
11:30 AM66 °FPassing clouds.13 mph49%29.92 "HgN/A
11:00 AM66 °FPassing clouds.12 mph49%29.95 "HgN/A
10:30 AM63 °FPassing clouds.13 mph59%29.95 "HgN/A
10:00 AM59 °FSunny.12 mph63%29.95 "Hg10 mi
9:30 AM57 °FSunny.9 mph67%29.92 "Hg10 mi
9:00 AM55 °FSunny.9 mph72%29.95 "Hg10 mi
8:30 AM54 °FPassing clouds.8 mph72%29.95 "HgN/A
8:00 AM52 °FPassing clouds.5 mph77%29.92 "Hg6 mi
7:30 AM50 °FPassing clouds.6 mph82%29.92 "Hg5 mi
7:00 AM50 °FPassing clouds.7 mph82%29.92 "Hg5 mi
6:30 AM48 °FFog.6 mph87%29.92 "Hg3 mi
6:00 AM48 °FClear.8 mph87%29.92 "Hg4 mi
Weather by CustomWeather, © 2015

See weather overviewHow to use our weather pages